Location: Unspecified
(0.0000°N, 0.0000°E)
Time: 05:35:38
(UTC+00:00)

Tiros 1 despin weight - Pass Details

Date: 07 October 2020
Orbit: 594 x 641 km, 48.2° (Epoch: 28 October)

Event Time Altitude Azimuth Distance (km) Brightness Sun altitude
Rises 04:22:23 0° 197° (SSW) 2,847 ? -21.2°
Reaches altitude 10° 04:25:07 10° 181° (S) 1,935 ? -20.6°
Maximum altitude 04:28:33 22° 130° (SE) 1,314 ? -19.7°
Drops below altitude 10° 04:31:58 10° 79° (ENE) 1,918 ? -18.9°
Sets 04:34:39 0° 63° (ENE) 2,814 ? -18.2°
